File timestamp: Sat Aug 20 01:00:00 2016, Internal temp: 19.073486328125
1471654801.006, -0.007740484084934, -0.0114531619474292, 0.00519685493782163, 33671, 32556, 23205, 50.603401184082
1471654802.006, -0.00850023422390223, -0.0122383199632168, 0.00488419691100717, 33680, 32554, 23194, NaN
1471654803.006, -0.00856895092874765, -0.0133360475301743, 0.00555658526718616, 33675, 32554, 23196, NaN
1471654804.006, -0.00899680890142918, -0.0136441374197602, 0.00568730570375919, 33662, 32541, 23210, NaN
1471654804.01, -0.00919932033866644, -0.0131155839189887, 0.00502690905705094, 33672, 32557, 23206, NaN
1471654805.012, -0.00901423860341311, -0.0128642804920673, 0.00636906176805496, 33694, 32558, 23196, NaN
1471654806.012, -0.00832463800907135, -0.0139693720266223, 0.00588740315288305, 33678, 32550, 23206, NaN
1471654807.012, -0.00755709037184715, -0.0137322004884481, 0.00664481613785028, 33678, 32547, 23216, NaN
1471654808.012, -0.00669682025909424, -0.0142651600763202, 0.00712088402360678, 33684, 32562, 23197, NaN
1471654808.012, -0.00594909209758043, -0.0143077624961734, 0.00919201038777828, 33672, 32546, 23202, NaN
1471654809.016, -0.00626959977671504, -0.0138239273801446, 0.00951516442000866, 33676, 32557, 23201, NaN
1471654810.016, -0.00617353478446603, -0.0141714746132493, 0.00903430860489607, 33679, 32557, 23202, NaN
1471654811.016, -0.00301125948317349, -0.0141310300678015, 0.00877785123884678, 33674, 32549, 23208, NaN
1471654812.016, 0.00443305866792798, -0.0141382189467549, 0.00942447315901518, 33678, 32548, 23202, NaN
1471654812.016, 0.0176952295005322, -0.0144246891140938, 0.00986682251095772, 33685, 32546, 23194, NaN
1471654813.018, 0.0372178107500076, -0.0137443840503693, 0.0101818600669503, 33683, 32560, 23206, NaN
1471654814.018, 0.0624618977308273, -0.0145647935569286, 0.0100115388631821, 33673, 32572, 23198, NaN
1471654815.018, 0.0625859797000885, -0.0139847341924906, 0.0106593789532781, 33670, 32556, 23198, NaN
1471654816.018, 0.0427372232079506, -0.0143378870561719, 0.0107841165736318, 33665, 32560, 23211, NaN
1471654817.018, 0.0257763843983412, -0.0144621338695288, 0.0107329403981566, 33674, 32547, 23203, NaN
1471654818.018, 0.0114747546613216, -0.0151855275034904, 0.0110543332993984, 33685, 32556, 23190, NaN
1471654819.018, -0.000392353744246066, -0.0145177710801363, 0.0108271418139338, 33673, 32554, 23196, NaN
1471654820.026, -0.0100446958094835, -0.0154926357790828, 0.0110310651361942, 33679, 32558, 23196, NaN
1471654820.026, -0.0176961291581392, -0.0152425561100245, 0.0108365174382925, 33682, 32560, 23194, NaN
1471654821.034, -0.0235536471009254, -0.0148139037191868, 0.0112627493217587, 33681, 32558, 23200, NaN
1471654822.034, -0.0278164576739073, -0.0143219642341137, 0.0112482998520136, 33678, 32566, 23199, NaN
1471654823.034, -0.0306751150637865, -0.0142619516700506, 0.0122139463201165, 33679, 32551, 23206, NaN
1471654824.034, -0.0323107577860355, -0.0134144248440862, 0.0126983188092709, 33671, 32541, 23200, NaN
1471654825.034, -0.0328944474458694, -0.0141951777040958, 0.0123393656685948, 33677, 32557, 23209, NaN
1471654826.034, -0.0325866267085075, -0.0145742138847709, 0.0113722020760179, 33675, 32555, 23200, NaN
1471654827.034, -0.0315367020666599, -0.0144958067685366, 0.0104645043611526, 33671, 32553, 23205, NaN
1471654828.034, -0.0298827681690454, -0.0142229851335287, 0.010292530991137, 33680, 32551, 23198, NaN
1471654829.034, -0.0277514364570379, -0.0137166054919362, 0.0109149580821395, 33669, 32561, 23204, NaN
1471654830.034, -0.0252578109502792, -0.0139339976012707, 0.0114054465666413, 33678, 32541, 23208, NaN
1471654831.034, -0.0225055683404207, -0.0144213968887925, 0.011979853734374, 33670, 32557, 23201, NaN
1471654832.034, -0.019587142392993, -0.0139316963031888, 0.0126533471047878, 33688, 32561, 23194, NaN
1471654833.034, -0.0165840312838554, -0.0136910462751985, 0.0130327139049768, 33670, 32563, 23197, NaN
1471654834.034, -0.0135671552270651, -0.0143855903297663, 0.0135916424915195, 33674, 32546, 23213, NaN
1471654835.034, -0.010597332380712, -0.0135850412771106, 0.013573395088315, 33675, 32564, 23206, NaN
1471654836.034, -0.00772578828036785, -0.0138659151270986, 0.0132971070706844, 33672, 32560, 23211, NaN
1471654837.034, -0.00499473605304956, -0.0131016951054335, 0.0132271014153957, 33676, 32545, 23207, NaN
1471654838.034, -0.00243799155578017, -0.0127562526613474, 0.0141982957720757, 33668, 32554, 23215, NaN
1471654839.034, -8.16211249912158e-05, -0.0122285457327962, 0.0138876037672162, 33673, 32557, 23198, NaN
1471654840.034, 0.00205539166927338, -0.0115706343203783, 0.0143544236198068, 33682, 32560, 23196, NaN
1471654841.034, 0.00396046740934253, -0.0110097238793969, 0.0146004622802138, 33669, 32551, 23194, NaN
1471654842.034, 0.00562675343826413, -0.010777436196804, 0.0149907441809773, 33671, 32557, 23199, NaN
1471654843.034, 0.0070524550974369, -0.0109744938090444, 0.0150769045576453, 33681, 32556, 23198, NaN
1471654844.034, 0.00824018102139235, -0.0112112946808338, 0.0148950926959515, 33674, 32558, 23197, NaN
1471654845.034, 0.00919631123542786, -0.0113946925848722, 0.0153840333223343, 33679, 32555, 23195, NaN
1471654846.034, 0.0099303899332881, -0.0109149385243654, 0.0142596699297428, 33664, 32555, 23214, NaN
1471654847.034, 0.010454555042088, -0.0102239232510328, 0.0139361135661602, 33678, 32547, 23205, NaN
1471654848.042, 0.00933304522186518, -0.0093470411375165, 0.013437825255096, 33673, 32556, 23199, NaN
1471654849.042, 0.00550781562924385, -0.00914192665368319, 0.0135569553822279, 33680, 32556, 23198, NaN
1471654849.042, 0.000606302288360894, -0.0090288519859314, 0.0135178510099649, 33664, 32553, 23208, NaN
1471654850.05, -0.00586770940572023, -0.00879328139126301, 0.0134191988036036, 33666, 32558, 23196, NaN
1471654851.05, -0.0125674791634083, -0.00825881399214268, 0.0137536907568574, 33677, 32553, 23198, NaN
1471654852.05, -0.0184884183108807, -0.00771934259682894, 0.0144312530755997, 33678, 32563, 23209, NaN
1471654853.05, -0.0233769081532955, -0.00843576900660992, 0.0146359503269196, 33682, 32567, 23191, NaN
1471654853.05, -0.0264761988073587, -0.00878978613764048, 0.0145471608266234, 33679, 32552, 23191, NaN
1471654854.056, -0.028515974059701, -0.00834257435053587, 0.0138655882328749, 33673, 32548, 23198, NaN
1471654855.056, -0.0292287543416023, -0.00807334948331118, 0.013333598151803, 33681, 32552, 23199, 49.8708457946777
1471654856.056, -0.0283686369657516, -0.00940869841724634, 0.0133132738992572, 33670, 32549, 23208, NaN
1471654857.056, -0.0258338656276464, -0.00934941321611404, 0.0125890886411071, 33678, 32562, 23213, NaN
1471654858.056, -0.0214765015989542, -0.00889069586992264, 0.0129887228831649, 33679, 32557, 23198, NaN
1471654859.054, -0.0161972977221012, -0.007958073168993, 0.0123473322018981, 33676, 32544, 23199, NaN
1471654860.054, -0.0105828512459993, -0.00768971303477883, 0.0120988376438618, 33668, 32549, 23192, NaN
1471654861.054, -0.00389339728280902, -0.00658877333626151, 0.01265958417207, 33676, 32549, 23203, NaN
1471654862.054, 0.00272715324535966, -0.00670050829648972, 0.0115291438996792, 33675, 32557, 23190, NaN
1471654862.054, 0.00940418243408203, -0.00698106503114104, 0.0102938134223223, 33660, 32562, 23210, NaN
1471654863.058, 0.0154769858345389, -0.00697658397257328, 0.00968792103230953, 33679, 32558, 23196, NaN
1471654864.058, 0.0201337784528732, -0.00701612513512373, 0.00988486316055059, 33663, 32551, 23199, NaN
1471654865.058, 0.0244054775685072, -0.00741550186648965, 0.00982610695064068, 33672, 32548, 23195, NaN
1471654866.058, 0.0290202777832747, -0.00752934254705906, 0.00912808906286955, 33662, 32555, 23197, NaN
1471654866.058, 0.0334203168749809, -0.00735177798196673, 0.00929473247379065, 33679, 32561, 23196, NaN
1471654867.06, 0.0375933796167374, -0.00720969587564468, 0.00931061152368784, 33676, 32551, 23197, NaN
1471654868.06, 0.0411016568541527, -0.00739162694662809, 0.00877861771732569, 33676, 32556, 23202, NaN
1471654869.06, 0.0438197739422321, -0.00752008380368352, 0.00961381196975708, 33672, 32557, 23205, NaN
1471654870.06, 0.0447936244308949, -0.00782639440149069, 0.00923757161945105, 33676, 32557, 23203, NaN
1471654871.06, 0.0453393831849098, -0.00797521788626909, 0.00943725556135178, 33685, 32563, 23201, NaN
1471654872.06, 0.0456710383296013, -0.0080163236707449, 0.00880701281130314, 33674, 32579, 23211, NaN
1471654873.068, 0.0445510894060135, -0.00829480309039354, 0.0094754071906209, 33685, 32549, 23194, NaN
1471654874.068, 0.0425155237317085, -0.00876087229698896, 0.00904741883277893, 33674, 32557, 23200, NaN
1471654875.068, 0.0399538315832615, -0.00897693168371916, 0.00906605459749699, 33674, 32558, 23195, NaN
1471654876.068, 0.0365494936704636, -0.00914066564291716, 0.00823564920574427, 33667, 32548, 23221, NaN
1471654877.068, 0.0323926769196987, -0.00942888855934143, 0.00871284492313862, 33684, 32555, 23206, NaN
1471654878.068, 0.0283839944750071, -0.00959320273250341, 0.00839945487678051, 33683, 32542, 23204, NaN
1471654879.068, 0.024562805891037, -0.00969930738210678, 0.00858306046575308, 33675, 32555, 23200, NaN
1471654880.068, 0.0201811268925667, -0.0100713027641177, 0.00914815813302994, 33678, 32556, 23205, NaN
1471654881.068, 0.0151112647727132, -0.00945143774151802, 0.00862706452608109, 33671, 32563, 23211, NaN
1471654882.068, 0.0101697593927383, -0.00941153801977634, 0.00851903390139341, 33669, 32550, 23199, NaN
1471654883.068, 0.00641928520053625, -0.00963497534394264, 0.00858471915125847, 33670, 32557, 23208, NaN
1471654884.068, 0.00245750532485545, -0.00968299619853497, 0.00795626174658537, 33673, 32561, 23207, NaN
1471654885.068, -0.001343056675978, -0.0101468721404672, 0.00801216438412666, 33678, 32567, 23190, NaN
1471654886.068, -0.00438651442527771, -0.0109497494995594, 0.00775447068735957, 33673, 32549, 23209, NaN
1471654887.068, -0.00751562416553497, -0.0109886918216944, 0.00807716883718967, 33684, 32542, 23189, NaN
1471654888.068, -0.00994028709828854, -0.0122826574370265, 0.00876826606690884, 33676, 32546, 23200, NaN
1471654889.068, -0.0114455539733171, -0.0122681297361851, 0.00887919589877129, 33670, 32558, 23200, NaN
1471654890.068, -0.0127898352220654, -0.0119756134226918, 0.00870489235967398, 33681, 32551, 23196, NaN
1471654891.068, -0.0136732840910554, -0.0117561891674995, 0.00819062720984221, 33672, 32547, 23197, NaN
1471654892.068, -0.0145013947039843, -0.0106815183535218, 0.00858511589467525, 33682, 32551, 23214, NaN
1471654893.068, -0.0158059224486351, -0.010921984910965, 0.00857584923505783, 33667, 32544, 23214, NaN
1471654894.068, -0.01704291254282, -0.0118197482079268, 0.00852152612060308, 33685, 32567, 23202, NaN
1471654895.068, -0.0190835427492857, -0.0108929295092821, 0.00776244141161442, 33679, 32570, 23204, NaN
1471654896.068, -0.0213373675942421, -0.0107258157804608, 0.00854211114346981, 33681, 32545, 23196, NaN
1471654897.068, -0.0235765092074871, -0.0112477811053395, 0.0088589983060956, 33671, 32557, 23191, NaN
1471654898.068, -0.0241882968693972, -0.0107501037418842, 0.00862916186451912, 33675, 32559, 23199, NaN
1471654899.068, -0.0235835965722799, -0.0108520919457078, 0.00803155358880758, 33663, 32556, 23208, NaN
1471654900.068, -0.0234663374722004, -0.0114404549822211, 0.00932871177792549, 33675, 32566, 23199, NaN
1471654901.068, -0.0223311558365822, -0.0109700728207827, 0.00973222777247429, 33673, 32551, 23201, NaN
1471654902.076, -0.0198891088366508, -0.0108505869284272, 0.00977801531553268, 33671, 32558, 23213, NaN
1471654903.076, -0.018469575792551, -0.0108113456517458, 0.00986656825989485, 33687, 32558, 23202, NaN
1471654904.076, -0.0182137805968523, -0.0109070586040616, 0.0096952049061656, 33681, 32567, 23185, NaN
1471654904.076, -0.0188142582774162, -0.0116810398176312, 0.00969534832984209, 33676, 32559, 23199, NaN
1471654905.084, -0.0192985236644745, -0.0104361465200782, 0.0095428479835391, 33671, 32556, 23203, NaN
1471654906.084, -0.0190188139677048, -0.00985054485499859, 0.00979544688016176, 33683, 32558, 23205, NaN
1471654907.084, -0.0173656195402145, -0.0098891519010067, 0.00981518439948559, 33664, 32553, 23203, NaN
1471654908.084, -0.0143125299364328, -0.00965160690248013, 0.00991725269705057, 33679, 32567, 23208, NaN
1471654908.084, -0.0120047796517611, -0.00916434358805418, 0.0100865364074707, 33684, 32565, 23192, NaN
1471654909.09, -0.0101319709792733, -0.0100987963378429, 0.0100678615272045, 33682, 32560, 23195, NaN
1471654910.09, -0.00766918389126658, -0.00994615256786346, 0.01093081664294, 33678, 32557, 23205, NaN
1471654911.09, -0.00721854390576482, -0.00969010032713413, 0.0102384509518743, 33676, 32561, 23198, 49.8636741638184
1471654912.09, -0.00761144841089845, -0.0100790401920676, 0.00942168850451708, 33681, 32558, 23211, NaN
1471654912.09, -0.0063428059220314, -0.00891529396176338, 0.00932056363672018, 33669, 32540, 23199, NaN
1471654913.094, -0.00458012195304036, -0.00911522191017866, 0.00890901032835245, 33662, 32550, 23208, NaN
1471654914.094, -0.00259541324339807, -0.00827102363109589, 0.00840683653950691, 33670, 32543, 23201, NaN
1471654915.094, -0.000918664271011949, -0.00814828742295504, 0.00833346974104643, 33681, 32550, 23197, NaN
1471654916.094, 0.00126543606165797, -0.00812580436468124, 0.00852857157588005, 33676, 32565, 23198, NaN
1471654916.094, 0.00236932234838605, -0.0081191211938858, 0.00855410005897284, 33672, 32555, 23215, NaN
1471654917.098, 0.00292597920633852, -0.00759985763579607, 0.00824572518467903, 33665, 32562, 23208, NaN
1471654918.098, 0.00436632474884391, -0.00778218032792211, 0.00779174128547311, 33678, 32556, 23212, NaN
1471654919.098, 0.00608220184221864, -0.00883412640541792, 0.00895677879452705, 33677, 32561, 23205, NaN
1471654920.098, 0.0086423996835947, -0.00820447690784931, 0.00897324737161398, 33685, 32543, 23192, NaN
1471654921.098, 0.0107447281479836, -0.00913479458540678, 0.00944189447909594, 33669, 32562, 23204, NaN
1471654922.098, 0.0132513241842389, -0.00867045577615499, 0.0100444862619042, 33677, 32547, 23211, NaN
1471654923.098, 0.0156166329979897, -0.00931460130959749, 0.0106162456795573, 33672, 32560, 23211, NaN
1471654924.098, 0.0174497272819281, -0.00978365633636713, 0.0102200852707028, 33677, 32549, 23192, NaN
1471654925.098, 0.018446184694767, -0.01016999874264, 0.00980003084987402, 33676, 32561, 23205, NaN
1471654926.098, 0.0177642293274403, -0.0103366756811738, 0.0104503072798252, 33666, 32561, 23202, NaN
1471654927.098, 0.0163347497582436, -0.010237542912364, 0.0107203545048833, 33678, 32563, 23187, NaN
1471654928.106, 0.0147589109838009, -0.00997083261609077, 0.0110323494300246, 33678, 32557, 23192, NaN
1471654929.106, 0.0129740685224533, -0.0105439564213157, 0.0106978043913841, 33676, 32559, 23207, NaN
1471654930.106, 0.0110815614461899, -0.0109656732529402, 0.0104401120916009, 33684, 32557, 23196, NaN
1471654930.106, 0.00984413735568523, -0.0114793814718723, 0.0104521019384265, 33673, 32550, 23205, NaN
1471654931.114, 0.00900681130588055, -0.0117281498387456, 0.0107597624883056, 33683, 32559, 23204, NaN
1471654932.114, 0.00774227408692241, -0.0115080503746867, 0.0108882039785385, 33672, 32563, 23201, NaN
1471654933.114, 0.00591905182227492, -0.0117061613127589, 0.0100058317184448, 33670, 32557, 23209, NaN
1471654934.114, 0.00235562422312796, -0.0118533438071609, 0.010314617305994, 33670, 32555, 23206, NaN
1471654935.114, -0.000510325015056878, -0.0121715376153588, 0.0104381768032908, 33671, 32566, 23205, NaN
1471654936.114, -0.00281538814306259, -0.0120682492852211, 0.0111288726329803, 33668, 32567, 23204, NaN
1471654937.114, -0.00447928858920932, -0.0122640980407596, 0.0108781000599265, 33679, 32553, 23209, NaN
1471654938.114, -0.00643897196277976, -0.0130327511578798, 0.0113106360659003, 33676, 32550, 23203, NaN
1471654939.114, -0.00770365819334984, -0.0131295612081885, 0.0122336493805051, 33666, 32559, 23206, NaN
1471654940.114, -0.00865034945309162, -0.0137136001139879, 0.012399896979332, 33674, 32557, 23197, NaN
1471654941.114, -0.00994057953357697, -0.0146817546337843, 0.012406412512064, 33686, 32559, 23200, NaN
1471654942.114, -0.0102975992485881, -0.0152731025591493, 0.0123432194814086, 33671, 32548, 23203, NaN
1471654943.114, -0.0098508233204484, -0.0150910699740052, 0.0126016559079289, 33674, 32566, 23190, NaN
1471654944.114, -0.00929864589124918, -0.0150739327073097, 0.0137889534235001, 33674, 32561, 23212, NaN
1471654945.114, -0.0103272153064609, -0.0145894261077046, 0.0135781969875097, 33674, 32559, 23193, NaN
1471654946.114, -0.0108418250456452, -0.0135426539927721, 0.0132192214950919, 33678, 32559, 23198, NaN
1471654947.114, -0.0103160487487912, -0.01368423178792, 0.014196171425283, 33678, 32556, 23193, NaN
1471654948.114, -0.0097061600536108, -0.0129391010850668, 0.0153032224625349, 33674, 32557, 23213, NaN
1471654949.114, -0.0092752892524004, -0.0135141629725695, 0.0158454701304436, 33667, 32544, 23203, NaN
1471654950.114, -0.00866741966456175, -0.0132782496511936, 0.0157713927328587, 33676, 32567, 23200, NaN
1471654951.114, -0.00792703963816166, -0.0128332069143653, 0.0156863275915384, 33673, 32553, 23196, NaN
1471654952.114, -0.00721274549141526, -0.0130334096029401, 0.0154687045142055, 33686, 32553, 23202, NaN
1471654953.114, -0.00640408368781209, -0.0126289082691073, 0.0154542839154601, 33677, 32556, 23199, NaN
1471654954.114, -0.00429465807974339, -0.0124066537246108, 0.0150051340460777, 33687, 32559, 23188, NaN
1471654955.114, -0.00205854582600296, -0.0125835770741105, 0.0157116949558258, 33672, 32553, 23202, NaN
1471654956.122, 0.000846149807330221, -0.0131756849586964, 0.0152394631877542, 33659, 32552, 23215, NaN
1471654957.122, 0.00387817202135921, -0.0133523652330041, 0.0152495009824634, 33685, 32546, 23197, NaN
1471654958.122, 0.00611407496035099, -0.0125558851286769, 0.0154153993353248, 33682, 32547, 23204, NaN
1471654958.122, 0.00802757032215595, -0.0129197249189019, 0.0156331788748503, 33673, 32553, 23199, NaN
1471654959.13, 0.00877031590789557, -0.014608733355999, 0.0159684270620346, 33674, 32563, 23202, NaN
1471654960.13, 0.00867689773440361, -0.0149161508306861, 0.0159061644226313, 33670, 32564, 23206, NaN
1471654961.13, 0.00825726613402367, -0.014659833163023, 0.0165964234620333, 33671, 32560, 23210, NaN
1471654962.13, 0.00758836744353175, -0.0153121007606387, 0.0163269657641649, 33683, 32571, 23199, NaN
1471654962.13, 0.00717933103442192, -0.0150249544531107, 0.0158033184707165, 33676, 32565, 23202, NaN
1471654963.136, 0.00622813822701573, -0.0153463007882237, 0.0157563779503107, 33670, 32560, 23198, NaN
1471654963.496, 0.00587304122745991, -0.0152631085366011, 0.015791404992342, 33674, 32562, 23206, NaN
1471654964.496, 0.00455507403239608, -0.0151854949072003, 0.0156537164002657, 33685, 32561, 23194, NaN
1471654965.496, 0.00310215563513339, -0.0152290798723698, 0.0155301364138722, 33687, 32554, 23194, NaN
1471654965.496, 0.00285240402445197, -0.0159974992275238, 0.0164512228220701, 33676, 32565, 23210, 45.7924461364746
1471654966.5, 0.00316855846904218, -0.0165743753314018, 0.016718327999115, 33673, 32550, 23196, NaN
1471654967.5, 0.00236949021928012, -0.0163949243724346, 0.0162672232836485, 33664, 32563, 23204, NaN
1471654968.5, 0.00199719262309372, -0.0168198682367802, 0.016043147072196, 33671, 32564, 23193, NaN
1471654969.5, 0.00147777691017836, -0.0169301070272923, 0.0159644857048988, 33681, 32554, 23207, NaN
1471654970.5, 0.00081700662849471, -0.0169008616358042, 0.0156885050237179, 33671, 32550, 23190, NaN
1471654971.5, 5.08916782564484e-05, -0.0172035489231348, 0.0158004499971867, 33678, 32551, 23200, NaN
1471654972.5, 0.000939422927331179, -0.0167030319571495, 0.0161605812609196, 33693, 32568, 23200, NaN
1471654973.5, 0.00427408656105399, -0.016963854432106, 0.0159332230687141, 33676, 32562, 23203, NaN
1471654974.5, 0.0105676921084523, -0.016927681863308, 0.0162976682186127, 33675, 32552, 23212, NaN
1471654975.5, 0.018831305205822, -0.0164916049689054, 0.0168902855366468, 33673, 32565, 23196, NaN
1471654976.5, 0.0273922719061375, -0.0166654139757156, 0.0168818421661854, 33665, 32567, 23215, NaN
1471654977.5, 0.0359208956360817, -0.0160660222172737, 0.0172517653554678, 33678, 32554, 23211, NaN
1471654978.5, 0.0454398170113564, -0.016913328319788, 0.0170081201940775, 33667, 32557, 23215, NaN
1471654979.5, 0.0557296276092529, -0.0169413518160582, 0.0174278412014246, 33676, 32540, 23198, NaN
1471654980.5, 0.0666098818182945, -0.0162306670099497, 0.0172311812639236, 33684, 32548, 23200, NaN
1471654981.5, 0.07755246758461, -0.015892693772912, 0.0173360276967287, 33674, 32563, 23200, NaN
1471654982.508, 0.08762226998806, -0.0163487922400236, 0.0171623975038528, 33672, 32547, 23190, NaN
1471654983.508, 0.0963262692093849, -0.0173291098326445, 0.0173284597694874, 33672, 32561, 23191, NaN
1471654984.508, 0.102795034646988, -0.0171329341828823, 0.0169924329966307, 33671, 32558, 23205, NaN
1471654984.508, 0.1076615229249, -0.0173600986599922, 0.016739109531045, 33672, 32555, 23193, NaN
1471654985.516, 0.110371269285679, -0.0170243792235851, 0.0168123971670866, 33680, 32556, 23200, NaN
1471654986.516, 0.110193476080894, -0.017459599301219, 0.016488729044795, 33676, 32551, 23206, NaN
1471654987.516, 0.108562365174294, -0.01662334240973, 0.0165002010762691, 33676, 32561, 23199, NaN
1471654988.516, 0.106655947864056, -0.0157289505004883, 0.0169125702232122, 33674, 32568, 23206, NaN
1471654988.516, 0.104588910937309, -0.0145205846056342, 0.0166907664388418, 33680, 32565, 23205, NaN
1471654989.522, 0.10135892033577, -0.0151992803439498, 0.0164345353841782, 33680, 32551, 23200, NaN
1471654990.522, 0.0984447821974754, -0.0149697251617908, 0.01674042083323, 33669, 32557, 23207, NaN
1471654991.522, 0.0932595804333687, -0.0149623574689031, 0.0161468517035246, 33676, 32546, 23203, NaN
1471654992.522, 0.0870721042156219, -0.0144944051280618, 0.015805808827281, 33662, 32561, 23213, NaN
1471654993.522, 0.0807172581553459, -0.0139029528945684, 0.0157761219888926, 33684, 32550, 23206, NaN
1471654994.522, 0.0736071765422821, -0.0133609855547547, 0.0163650885224342, 33677, 32552, 23198, NaN
1471654995.522, 0.0663234293460846, -0.0128250839188695, 0.0160483121871948, 33679, 32561, 23198, NaN
1471654996.522, 0.0592668727040291, -0.0126940049231052, 0.0159330107271671, 33684, 32560, 23181, NaN
1471654997.522, 0.0526816919445992, -0.0121432999148965, 0.0167672596871853, 33678, 32562, 23206, NaN
1471654998.522, 0.045911617577076, -0.0123448511585593, 0.0156979355961084, 33680, 32545, 23197, NaN
1471654999.522, 0.0383481718599796, -0.0126973846927285, 0.0156909078359604, 33661, 32558, 23215, NaN
1471655000.522, 0.0303556863218546, -0.0130213480442762, 0.0163359586149454, 33673, 32562, 23207, NaN
1471655001.522, 0.0235518291592598, -0.0139307230710983, 0.0162795577198267, 33668, 32555, 23198, NaN
1471655002.522, 0.016072154045105, -0.0147373927757144, 0.0166171528398991, 33674, 32552, 23199, NaN
1471655003.522, 0.00923725124448538, -0.0149822682142258, 0.0174431148916483, 33680, 32556, 23209, NaN
1471655004.522, 0.00293484912253916, -0.0154867293313146, 0.0170151740312576, 33675, 32557, 23201, NaN
1471655005.522, -0.00256310333497822, -0.0148546788841486, 0.0160278733819723, 33671, 32565, 23200, NaN
1471655006.522, -0.00749651668593287, -0.0148452101275325, 0.0160440728068352, 33683, 32553, 23200, NaN
1471655007.522, -0.0116244340315461, -0.0149734085425735, 0.0159567408263683, 33669, 32543, 23198, NaN
1471655008.522, -0.0145330065861344, -0.0143675087019801, 0.01593885011971, 33668, 32556, 23202, NaN
1471655009.53, -0.01540491823107, -0.0141967916861176, 0.0146712744608521, 33671, 32550, 23198, NaN
1471655010.53, -0.014238272793591, -0.0137090664356947, 0.0151623114943504, 33681, 32550, 23195, NaN
1471655011.53, -0.0113897994160652, -0.0135054122656584, 0.0157100092619658, 33662, 32551, 23208, NaN
1471655011.53, -0.0044939867220819, -0.0141644878312945, 0.0159808676689863, 33676, 32556, 23202, NaN
1471655012.538, 0.00667292485013604, -0.0139040639624, 0.0165043640881777, 33670, 32568, 23204, NaN